This demonstration page uses our WeatherBlox Daily Observations layout. Learn more.

Left ArrowRight Arrow

40.92945, -100.16068

Hourly Observations for November 10, 2018

Temp ( °F °C ) Dew Point ( °F °C ) Humidity (%) Winds ( mph kmh ) Pressure ( in mb ) Visibility ( mi km ) Precip ( " mm )
12:15 am 00:15 Clear 13 -10.5 6 -14.5 73 73 SSE 10 17 30.5 1033 10 16.0934 0 0
12:35 am 00:35 Clear 13 -10.3 7 -14 75 75 S 13 20 30.5 1033 10 16.0934 0 0
12:55 am 00:55 Clear 14 -10.1 7 -13.9 74 74 S 12 19 30.5 1033 10 16.0934 0 0
1:15 am 01:15 Clear 14 -10 7 -13.9 73 73 S 10 17 30.48 1032 10 16.0934 0 0
1:35 am 01:35 Clear 14 -10 7 -14 73 73 S 14 22 30.48 1032 10 16.0934 0 0
1:55 am 01:55 Clear 14 -10 7 -13.9 73 73 S 9 15 30.48 1032 10 16.0934 0 0
2:15 am 02:15 Clear 14 -10 7 -13.7 75 75 S 13 20 30.45 1031 10 16.0934 0 0
2:35 am 02:35 Clear 14 -10 7 -13.7 75 75 S 15 24 30.45 1031 10 16.0934 0 0
2:55 am 02:55 Clear 14 -10 7 -13.7 75 75 S 13 20 30.45 1031 10 16.0934 0 0
3:15 am 03:15 Clear 14 -10 8 -13.6 75 75 SSE 12 19 30.42 1030 10 16.0934 0 0
3:35 am 03:35 Clear 14 -10.1 8 -13.5 76 76 SSE 13 20 30.42 1030 10 16.0934 0 0
3:55 am 03:55 Clear 14 -10 8 -13.5 76 76 S 12 19 30.39 1029 10 16.0934 0 0
4:15 am 04:15 Clear 14 -9.8 8 -13.4 75 75 SSE 10 17 30.39 1029 10 16.0934 0 0
4:35 am 04:35 Partly Cloudy 15 -9.6 9 -12.9 77 77 SSE 13 20 30.33 1027 10 16.0934 0 0
4:55 am 04:55 Partly Cloudy 15 -9.3 9 -12.6 77 77 SSE 14 22 30.33 1027 10 16.0934 0 0
5:15 am 05:15 Clear 15 -9.2 10 -12.5 77 77 SSE 14 22 30.33 1027 10 16.0934 0 0
5:35 am 05:35 Clear 15 -9.2 10 -12.5 77 77 SSE 13 20 30.3 1026 10 16.0934 0 0
5:55 am 05:55 Clear 15 -9.2 10 -12.2 79 79 SSE 15 24 30.3 1026 10 16.0934 0 0
6:15 am 06:15 Clear 15 -9.2 10 -12.1 80 80 S 14 22 30.3 1026 10 16.0934 0 0
6:35 am 06:35 Partly Cloudy 15 -9.2 10 -12 80 80 SSE 10 17 30.3 1026 10 16.0934 0 0
6:55 am 06:55 Mostly Cloudy 16 -8.8 11 -11.6 80 80 SSE 14 22 30.27 1025 10 16.0934 0 0
7:15 am 07:15 Cloudy 17 -8.5 12 -11.3 80 80 S 13 20 30.27 1025 10 16.0934 0 0
7:35 am 07:35 Cloudy 17 -8.3 12 -11.2 80 80 S 18 30 30.27 1025 10 16.0934 0 0
7:55 am 07:55 Cloudy 17 -8.2 12 -11 80 80 S 16 26 30.24 1024 10 16.0934 0 0
8:15 am 08:15 Cloudy 17 -8.1 13 -10.6 82 82 S 16 26 30.24 1024 10 16.0934 0 0
8:35 am 08:35 Cloudy 18 -7.9 13 -10.4 82 82 S 15 24 30.24 1024 10 16.0934 0 0
8:55 am 08:55 Cloudy 18 -7.6 14 -10.1 82 82 S 18 30 30.21 1023 10 16.0934 0 0
9:15 am 09:15 Cloudy 19 -7.1 15 -9.6 83 83 S 17 28 30.21 1023 10 16.0934 0 0
9:35 am 09:35 Cloudy 19 -7 15 -9.5 83 83 SSE 16 26 30.21 1023 10 16.0934 0 0
9:55 am 09:55 Cloudy 20 -6.7 16 -9.1 83 83 S 16 26 30.21 1023 10 16.0934 0 0
10:15 am 10:15 Cloudy 20 -6.5 16 -8.9 83 83 S 13 20 30.21 1023 10 16.0934 0 0
10:35 am 10:35 Cloudy 21 -6.1 17 -8.5 83 83 S 14 22 30.21 1023 10 16.0934 0 0
10:55 am 10:55 Cloudy 22 -5.6 18 -8 83 83 S 12 19 30.21 1023 10 16.0934 0 0
11:15 am 11:15 Cloudy 23 -4.8 19 -7.3 83 83 S 13 20 30.15 1021 10 16.0934 0 0
11:35 am 11:35 Cloudy 25 -4 20 -6.6 82 82 S 14 22 30.15 1021 10 16.0934 0 0
11:55 am 11:55 Cloudy 25 -4 20 -6.6 82 82 S 10 17 30.15 1021 10 16.0934 0 0
12:15 pm 12:15 Cloudy 26 -3.1 21 -6 81 81 S 12 19 30.15 1021 10 16.0934 0 0
12:35 pm 12:35 Cloudy 28 -2.3 22 -5.5 79 79 S 8 13 30.15 1021 10 16.0934 0 0
12:55 pm 12:55 Cloudy 29 -1.5 23 -4.9 78 78 S 9 15 30.09 1019 10 16.0934 0 0
1:15 pm 13:15 Cloudy 30 -1 23 -4.9 75 75 S 7 11 30.09 1019 10 16.0934 0 0
1:35 pm 13:35 Partly Cloudy 31 -0.4 24 -4.5 74 74 S 5 7 30.09 1019 10 16.0934 0 0
1:55 pm 13:55 Sunny 32 0 25 -4.1 74 74 SSE 5 7 30.09 1019 10 16.0934 0 0
2:15 pm 14:15 Sunny 33 0.7 25 -3.8 72 72 S 3 6 30.06 1018 10 16.0934 0 0
2:35 pm 14:35 Sunny 35 1.4 26 -3.3 71 71 S 7 11 30.06 1018 10 16.0934 0 0
2:55 pm 14:55 Sunny 35 1.7 26 -3.2 70 70 S 3 6 30.06 1018 10 16.0934 0 0
3:15 pm 15:15 Sunny 36 2.4 27 -2.7 69 69 SSW 3 6 30.06 1018 10 16.0934 0 0
3:35 pm 15:35 Sunny 35 1.8 26 -3.2 70 70 SSW 5 7 30.06 1018 10 16.0934 0 0
3:55 pm 15:55 Sunny 36 2 27 -2.8 71 71 S 5 7 30.06 1018 10 16.0934 0 0
4:15 pm 16:15 Sunny 36 2 27 -2.6 72 72 SW 3 6 30.06 1018 10 16.0934 0 0
4:35 pm 16:35 Sunny 35 1.8 27 -2.6 73 73 W 3 6 30.06 1018 10 16.0934 0 0
4:55 pm 16:55 Sunny 35 1.5 28 -2.3 76 76 Calm 30.09 1019 10 16.0934 0 0
5:15 pm 17:15 Sunny 35 1.4 28 -2.3 77 77 Calm 30.09 1019 10 16.0934 0 0
5:35 pm 17:35 Clear 34 1 28 -2.5 78 78 Calm 30.09 1019 10 16.0934 0 0
5:55 pm 17:55 Clear 32 0.1 27 -2.6 82 82 ENE 7 11 30.09 1019 10 16.0934 0 0
6:15 pm 18:15 Clear 32 0 27 -2.8 82 82 Calm 30.12 1020 10 16.0934 0 0
6:35 pm 18:35 Clear 32 -0.2 27 -2.7 83 83 S 3 6 30.15 1021 10 16.0934 0 0
6:55 pm 18:55 Clear 31 -0.7 27 -2.9 85 85 Calm 30.15 1021 10 16.0934 0 0
7:15 pm 19:15 Clear 31 -0.8 27 -3 85 85 Calm 30.15 1021 10 16.0934 0 0
7:35 pm 19:35 Clear 31 -0.7 26 -3.3 83 83 Calm 30.15 1021 10 16.0934 0 0
7:55 pm 19:55 Clear 30 -1.1 26 -3.2 86 86 Calm 30.15 1021 10 16.0934 0 0
8:15 pm 20:15 Clear 27 -2.6 24 -4.3 88 88 Calm 30.21 1023 10 16.0934 0 0
8:35 pm 20:35 Clear 25 -3.8 22 -5.3 89 89 NW 5 7 30.21 1023 10 16.0934 0 0
8:55 pm 20:55 Clear 25 -4.1 22 -5.5 90 90 N 5 7 30.21 1023 10 16.0934 0 0
9:15 pm 21:15 Clear 25 -4.1 22 -5.5 90 90 ENE 5 7 30.21 1023 10 16.0934 0 0
9:35 pm 21:35 Clear 26 -3.2 24 -4.4 92 92 Calm 30.24 1024 10 16.0934 0 0
9:55 pm 21:55 Partly Cloudy 28 -2.2 25 -3.7 90 90 N 5 7 30.24 1024 10 16.0934 0 0
10:15 pm 22:15 Mostly Cloudy 28 -2.5 24 -4.2 88 88 N 8 13 30.24 1024 10 16.0934 0 0
10:35 pm 22:35 Partly Cloudy 26 -3.3 23 -5.2 87 87 NNW 7 11 30.24 1024 10 16.0934 0 0
10:55 pm 22:55 Clear 24 -4.7 20 -6.4 88 88 NW 3 6 30.27 1025 10 16.0934 0 0
11:15 pm 23:15 Clear 23 -5.2 20 -6.7 89 89 NW 3 6 30.27 1025 10 16.0934 0 0
11:35 pm 23:35 Clear 23 -5 20 -6.5 89 89 SSW 6 9 30.27 1025 10 16.0934 0 0
11:55 pm 23:55 Clear 25 -4 22 -5.5 89 89 WNW 7 11 30.27 1025 10 16.0934 0 0

Powered by AerisWeather